Location: Newport
(44.6370°N, 124.0520°W)
Time: 07:59:56
(UTC-08:00)

Vanguard 2 Rocket - All Passes

Search period start: 17 December 2017 00:00
Search period end: 27 December 2017 00:00
Orbit: 556 x 3326 km, 32.9° (Epoch: 16 December)

Date Brightness Start Highest point End Pass type
(mag) Time Alt. Az. Time Alt. Az. Time Alt. Az.
17 Dec - 00:43:15 10° W 00:58:37 33° SW 01:14:30 10° SSE visible
17 Dec - 03:10:06 10° WSW 03:12:59 10° SW 03:15:49 10° SW visible
17 Dec - 17:04:48 10° S 17:11:56 25° SE 17:22:22 10° E visible
17 Dec - 19:14:39 10° SW 19:25:16 48° SSE 19:42:07 10° E visible
17 Dec - 21:27:18 10° WSW 21:41:01 53° S 22:00:06 10° ESE visible
17 Dec - 23:42:07 10° W 23:57:30 39° SSW 00:14:57 10° SSE visible
18 Dec - 02:01:56 10° W 02:12:42 18° SW 02:23:21 10° SSW visible
18 Dec - 16:08:21 10° SSE 16:12:55 15° SE 16:18:43 10° ESE daylight
18 Dec - 18:16:07 10° SW 18:25:08 41° SSE 18:39:41 10° E visible
18 Dec - 20:27:52 10° WSW 20:39:57 53° S 20:58:19 10° ESE visible
18 Dec - 22:41:40 10° W 22:56:15 45° SSW 23:14:38 10° SE visible
19 Dec - 00:58:46 10° W 01:12:04 24° SW 01:26:01 10° S night (unlit)
19 Dec - 17:18:03 10° SSW 17:25:30 31° SSE 17:37:08 10° E visible
19 Dec - 19:28:48 10° WSW 19:39:17 51° S 19:56:11 10° ESE visible
19 Dec - 21:41:45 10° W 21:55:04 49° SSW 22:13:37 10° SE visible
19 Dec - 23:57:08 10° W 00:11:11 31° SSW 00:27:12 10° SSE visible
20 Dec - 02:24:49 10° SW 02:25:58 10° SW 02:27:08 10° SW night (unlit)
20 Dec - 16:20:40 10° S 16:26:20 21° SE 16:34:24 10° E daylight
20 Dec - 18:30:07 10° SW 18:39:03 45° SSE 18:53:53 10° E visible
20 Dec - 20:42:15 10° WSW 20:54:04 51° S 21:12:03 10° ESE visible
20 Dec - 22:56:26 10° W 23:10:09 37° SSW 23:27:21 10° SSE visible
21 Dec - 01:15:42 10° WSW 01:25:31 17° SW 01:35:50 10° SSW night (unlit)
21 Dec - 15:24:56 10° SSE 15:27:32 12° SE 15:30:32 10° ESE daylight
21 Dec - 17:31:47 10° SW 17:39:18 37° SSE 17:51:34 10° E visible
21 Dec - 19:43:07 10° WSW 19:53:24 50° S 20:10:06 10° ESE visible
21 Dec - 21:56:22 10° W 22:09:06 42° SSW 22:26:43 10° SE visible
22 Dec - 00:12:52 10° W 00:24:49 23° SW 00:38:22 10° S visible
22 Dec - 16:33:55 10° SSW 16:39:59 27° SSE 16:49:16 10° E daylight
22 Dec - 18:44:19 10° WSW 18:53:08 47° S 19:07:57 10° ESE visible
22 Dec - 20:56:47 10° W 21:08:13 45° SSW 21:25:28 10° SE visible
22 Dec - 23:11:36 10° W 23:23:59 29° SSW 23:39:19 10° SSE visible
23 Dec - 15:36:45 10° S 15:41:03 17° SE 15:46:48 10° ESE daylight
23 Dec - 17:45:50 10° SW 17:53:17 41° SSE 18:05:48 10° E visible
23 Dec - 19:57:35 10° WSW 20:07:36 47° S 20:23:46 10° ESE visible
23 Dec - 22:11:14 10° W 22:23:07 34° SSW 22:39:15 10° SSE visible
24 Dec - 00:30:16 10° WSW 00:38:29 15° SW 00:47:31 10° SSW visible
24 Dec - 16:47:40 10° SW 16:53:51 33° SSE 17:03:46 10° E daylight
24 Dec - 18:58:41 10° WSW 19:07:19 46° S 19:21:51 10° ESE visible
24 Dec - 21:11:28 10° W 21:22:21 38° SSW 21:38:27 10° SE visible
24 Dec - 23:27:35 10° WSW 23:37:50 20° SW 23:50:05 10° S visible
25 Dec - 15:49:56 10° SSW 15:54:47 23° SSE 16:01:50 10° ESE daylight
25 Dec - 18:00:05 10° WSW 18:07:26 43° S 18:19:53 10° ESE visible
25 Dec - 20:12:10 10° WSW 20:21:49 41° SSW 20:37:07 10° SE visible
25 Dec - 22:26:35 10° WSW 22:37:08 26° SSW 22:50:57 10° SSE visible
26 Dec - 14:53:06 10° S 14:56:00 14° SE 14:59:35 10° ESE daylight
26 Dec - 17:01:45 10° SW 17:07:54 36° SSE 17:18:02 10° ESE visible
26 Dec - 19:13:11 10° WSW 19:21:35 42° S 19:35:30 10° ESE visible
26 Dec - 21:26:29 10° WSW 21:36:30 30° SSW 21:50:47 10° SSE visible
26 Dec - 23:45:56 10° WSW 23:51:43 13° SW 23:58:07 10° SSW visible
